| time (UTC) | temp C | wind direction | speed KPH | gust KPH | rain 1hr cm | rain 24hr cm | rain mn cm | humidity % | barometer mb |
| 20260508124743 | 18 | 261 | 9.7 | 14.5 | 0.00 | 0.00 | 0.00 | 53 | 1004.1 |
| 20260508123743 | 19 | 287 | 8.0 | 14.5 | 0.00 | 0.00 | 0.00 | 55 | 1003.8 |
| 20260508122743 | 19 | 264 | 11.3 | 14.5 | 0.00 | 0.00 | 0.00 | 56 | 1003.5 |
| 20260508121742 | 19 | 276 | 12.9 | 25.7 | 0.00 | 0.00 | 0.00 | 57 | 1003.4 |
| 20260508120741 | 19 | 269 | 11.3 | 16.1 | 0.00 | 0.00 | 0.00 | 56 | 1003.2 |
| 20260508115741 | 20 | 266 | 8.0 | 11.3 | 0.00 | 0.00 | 0.00 | 56 | 1003.1 |
| 20260508114741 | 20 | 259 | 4.8 | 9.7 | 0.00 | 0.00 | 0.00 | 56 | 1003.1 |
| 20260508113741 | 20 | 270 | 11.3 | 14.5 | 0.00 | 0.00 | 0.00 | 55 | 1002.9 |
| 20260508112743 | 20 | 268 | 9.7 | 12.9 | 0.00 | 0.00 | 0.00 | 56 | 1002.7 |
| 20260508111743 | 20 | 273 | 9.7 | 12.9 | 0.00 | 0.00 | 0.00 | 57 | 1002.5 |
| 20260508110743 | 20 | 267 | 9.7 | 14.5 | 0.00 | 0.00 | 0.00 | 58 | 1002.1 |
| 20260508105743 | 21 | 270 | 9.7 | 12.9 | 0.00 | 0.00 | 0.00 | 57 | 1002.1 |
| 20260508104742 | 21 | 263 | 9.7 | 14.5 | 0.00 | 0.00 | 0.00 | 56 | 1001.8 |
| 20260508103742 | 21 | 262 | 8.0 | 14.5 | 0.00 | 0.00 | 0.00 | 57 | 1001.6 |
| 20260508102742 | 22 | 270 | 8.0 | 11.3 | 0.00 | 0.00 | 0.00 | 57 | 1001.4 |
| 20260508101742 | 22 | 265 | 4.8 | 11.3 | 0.00 | 0.00 | 0.00 | 55 | 1001.4 |
| 20260508100742 | 22 | 267 | 8.0 | 12.9 | 0.00 | 0.00 | 0.00 | 52 | 1001.2 |
| 20260508095742 | 22 | 270 | 8.0 | 11.3 | 0.00 | 0.00 | 0.00 | 53 | 1000.9 |
| 20260508094742 | 21 | 273 | 8.0 | 12.9 | 0.00 | 0.00 | 0.00 | 67 | 1000.8 |
| 20260508093741 | 21 | 267 | 8.0 | 12.9 | 0.00 | 0.00 | 0.00 | 70 | 1000.8 |
| 20260508092741 | 21 | 274 | 4.8 | 14.5 | 0.00 | 0.00 | 0.00 | 71 | 1000.8 |
| 20260508091741 | 21 | 268 | 8.0 | 12.9 | 0.00 | 0.00 | 0.00 | 72 | 1000.6 |
| 20260508090741 | 21 | 270 | 8.0 | 11.3 | 0.00 | 0.00 | 0.00 | 73 | 1000.7 |
| 20260508085741 | 22 | 272 | 3.2 | 8.0 | 0.00 | 0.00 | 0.00 | 73 | 1000.6 |
| 20260508084741 | 22 | 270 | 8.0 | 12.9 | 0.00 | 0.00 | 0.00 | 72 | 1000.5 |
| 20260508083743 | 22 | 271 | 8.0 | 9.7 | 0.00 | 0.00 | 0.00 | 72 | 1000.4 |
| 20260508082742 | 22 | 270 | 4.8 | 11.3 | 0.00 | 0.00 | 0.00 | 72 | 1000.4 |
| 20260508081742 | 22 | 278 | 4.8 | 9.7 | 0.00 | 0.00 | 0.00 | 73 | 1000.4 |
| 20260508080742 | 21 | 270 | 8.0 | 12.9 | 0.00 | 0.00 | 0.00 | 75 | 1000.8 |
| 20260508075742 | 21 | 267 | 9.7 | 9.7 | 0.00 | 0.00 | 0.00 | 75 | 1000.9 |
| 20260508074742 | 22 | 264 | 8.0 | 11.3 | 0.00 | 0.00 | 0.00 | 73 | 1000.7 |
| 20260508073742 | 22 | 263 | 3.2 | 12.9 | 0.00 | 0.00 | 0.00 | 72 | 1000.7 |
| 20260508072742 | 22 | 265 | 3.2 | 8.0 | 0.00 | 0.00 | 0.00 | 72 | 1000.7 |
| 20260508071742 | 22 | 270 | 8.0 | 11.3 | 0.00 | 0.00 | 0.00 | 72 | 1000.9 |
| 20260508070741 | 22 | 269 | 4.8 | 8.0 | 0.00 | 0.00 | 0.00 | 72 | 1001.0 |
| 20260508065741 | 22 | 263 | 3.2 | 8.0 | 0.00 | 0.00 | 0.00 | 74 | 1001.1 |
| 20260508064741 | 22 | 266 | 4.8 | 9.7 | 0.00 | 0.00 | 0.00 | 73 | 1001.1 |
| 20260508063741 | 21 | 270 | 9.7 | 12.9 | 0.00 | 0.00 | 0.00 | 74 | 1001.0 |
| 20260508061741 | 22 | 270 | 4.8 | 8.0 | 0.00 | 0.00 | 0.00 | 74 | 1001.1 |
| 20260508060743 | 22 | 270 | 9.7 | 16.1 | 0.00 | 0.00 | 0.00 | 73 | 1001.0 |
| 20260508055743 | 22 | 268 | 9.7 | 20.9 | 0.00 | 0.00 | 0.00 | 70 | 1001.1 |
| 20260508054743 | 22 | 262 | 9.7 | 9.7 | 0.00 | 0.00 | 0.00 | 72 | 1001.3 |
| 20260508053742 | 22 | 275 | 8.0 | 11.3 | 0.00 | 0.00 | 0.00 | 70 | 1001.3 |
| 20260508052742 | 22 | 264 | 9.7 | 14.5 | 0.00 | 0.00 | 0.00 | 68 | 1001.3 |
| 20260508051742 | 23 | 264 | 9.7 | 12.9 | 0.00 | 0.00 | 0.00 | 68 | 1001.2 |
| 20260508050742 | 23 | 262 | 9.7 | 14.5 | 0.00 | 0.00 | 0.00 | 68 | 1000.9 |
| 20260508045742 | 23 | 266 | 8.0 | 11.3 | 0.00 | 0.00 | 0.00 | 68 | 1001.3 |
| 20260508044741 | 23 | 276 | 4.8 | 11.3 | 0.00 | 0.00 | 0.00 | 67 | 1001.3 |
| 20260508043742 | 23 | 268 | 8.0 | 12.9 | 0.00 | 0.00 | 0.00 | 66 | 1001.5 |
| 20260508042741 | 23 | 271 | 9.7 | 16.1 | 0.00 | 0.00 | 0.00 | 67 | 1001.8 |
| 20260508041741 | 23 | 257 | 11.3 | 19.3 | 0.00 | 0.00 | 0.00 | 65 | 1001.9 |
| 20260508040741 | 24 | 264 | 9.7 | 14.5 | 0.00 | 0.00 | 0.00 | 63 | 1002.0 |
| 20260508035741 | 24 | 257 | 11.3 | 19.3 | 0.00 | 0.00 | 0.00 | 63 | 1002.0 |
| 20260508034741 | 24 | 273 | 8.0 | 14.5 | 0.00 | 0.00 | 0.00 | 62 | 1001.8 |
| 20260508033743 | 24 | 270 | 9.7 | 14.5 | 0.00 | 0.00 | 0.00 | 63 | 1002.1 |
| 20260508032743 | 23 | 273 | 4.8 | 9.7 | 0.00 | 0.00 | 0.00 | 65 | 1002.2 |
| 20260508031743 | 23 | 259 | 1.6 | 9.7 | 0.00 | 0.00 | 0.00 | 68 | 1002.0 |
| 20260508030742 | 23 | 251 | 4.8 | 11.3 | 0.00 | 0.00 | 0.00 | 69 | 1002.1 |
| 20260508025742 | 23 | 237 | 4.8 | 12.9 | 0.00 | 0.00 | 0.00 | 69 | 1002.4 |
| 20260508024742 | 22 | 246 | 3.2 | 4.8 | 0.00 | 0.00 | 0.00 | 71 | 1002.6 |
| 20260508023742 | 22 | 259 | 3.2 | 8.0 | 0.00 | 0.00 | 0.00 | 72 | 1002.8 |
| 20260508022742 | 22 | 257 | 4.8 | 11.3 | 0.00 | 0.00 | 0.00 | 73 | 1002.8 |
| 20260508021742 | 23 | 256 | 8.0 | 12.9 | 0.00 | 0.00 | 0.00 | 69 | 1003.0 |
| 20260508020742 | 23 | 256 | 3.2 | 11.3 | 0.00 | 0.00 | 0.00 | 70 | 1003.1 |
| 20260508015742 | 23 | 264 | 8.0 | 9.7 | 0.00 | 0.00 | 0.00 | 68 | 1003.2 |
| 20260508014741 | 22 | 258 | 3.2 | 8.0 | 0.00 | 0.00 | 0.00 | 70 | 1003.3 |
| 20260508013741 | 22 | 268 | 4.8 | 8.0 | 0.00 | 0.00 | 0.00 | 72 | 1003.6 |
| 20260508012742 | 22 | 263 | 4.8 | 8.0 | 0.00 | 0.00 | 0.00 | 75 | 1003.8 |
| 20260508011741 | 21 | 261 | 3.2 | 8.0 | 0.00 | 0.00 | 0.00 | 77 | 1003.9 |
| 20260508010741 | 21 | 258 | 8.0 | 12.9 | 0.00 | 0.00 | 0.00 | 77 | 1004.1 |
| 20260508005743 | 21 | 260 | 11.3 | 11.3 | 0.00 | 0.00 | 0.00 | 76 | 1003.8 |
| 20260508004743 | 21 | 264 | 8.0 | 9.7 | 0.00 | 0.00 | 0.00 | 77 | 1003.7 |
| 20260508003743 | 21 | 258 | 4.8 | 11.3 | 0.00 | 0.00 | 0.00 | 78 | 1003.7 |
| 20260508002742 | 21 | 259 | 9.7 | 11.3 | 0.00 | 0.00 | 0.00 | 78 | 1003.6 |
| 20260508001742 | 21 | 264 | 8.0 | 14.5 | 0.00 | 0.00 | 0.00 | 77 | 1003.9 |
| 20260508000742 | 22 | 267 | 8.0 | 12.9 | 0.00 | 0.00 | 0.00 | 76 | 1003.9 |
| 20260507235742 | 22 | 267 | 4.8 | 9.7 | 0.00 | 0.00 | 0.00 | 76 | 1003.9 |
| 20260507234742 | 22 | 259 | 4.8 | 11.3 | 0.00 | 0.00 | 0.00 | 75 | 1003.6 |
| 20260507233742 | 22 | 260 | 8.0 | 9.7 | 0.00 | 0.00 | 0.00 | 74 | 1003.8 |
| 20260507232742 | 22 | 251 | 3.2 | 4.8 | 0.00 | 0.00 | 0.00 | 74 | 1004.0 |
| 20260507231742 | 23 | 251 | 4.8 | 8.0 | 0.00 | 0.00 | 0.00 | 72 | 1004.3 |
| 20260507225742 | 23 | 200 | 3.2 | 4.8 | 0.00 | 0.00 | 0.00 | 70 | 1004.0 |
| 20260507224742 | 22 | 288 | 0.0 | 0.0 | 0.00 | 0.00 | 0.00 | 72 | 1004.5 |
| 20260507223741 | 22 | 274 | 0.0 | 0.0 | 0.00 | 0.00 | 0.00 | 73 | 1004.5 |
| 20260507222743 | 22 | 271 | 0.0 | 0.0 | 0.00 | 0.00 | 0.00 | 75 | 1004.6 |
| 20260507221743 | 21 | 233 | 0.0 | 0.0 | 0.00 | 0.00 | 0.00 | 77 | 1004.5 |
| 20260507220742 | 21 | 261 | 1.6 | 1.6 | 0.00 | 0.00 | 0.00 | 79 | 1004.6 |
| 20260507215742 | 21 | 246 | 0.0 | 1.6 | 0.00 | 0.00 | 0.00 | 80 | 1004.7 |
| 20260507214743 | 21 | 257 | 3.2 | 3.2 | 0.00 | 0.00 | 0.00 | 80 | 1005.1 |
| 20260507213742 | 21 | 226 | 0.0 | 0.0 | 0.00 | 0.00 | 0.00 | 79 | 1005.1 |
| 20260507212742 | 21 | 257 | 0.0 | 0.0 | 0.00 | 0.00 | 0.00 | 79 | 1005.1 |
| 20260507211742 | 21 | 256 | 1.6 | 1.6 | 0.00 | 0.00 | 0.00 | 79 | 1005.1 |
| 20260507210742 | 21 | 248 | 0.0 | 1.6 | 0.00 | 0.00 | 0.00 | 80 | 1005.0 |
| 20260507205742 | 21 | 294 | 0.0 | 0.0 | 0.00 | 0.00 | 0.00 | 79 | 1005.0 |
| 20260507204742 | 21 | 294 | 0.0 | 0.0 | 0.00 | 0.00 | 0.00 | 80 | 1005.0 |
| 20260507203741 | 21 | 294 | 0.0 | 0.0 | 0.00 | 0.00 | 0.00 | 80 | 1004.9 |
| 20260507202741 | 21 | 294 | 0.0 | 0.0 | 0.00 | 0.00 | 0.00 | 80 | 1005.1 |
| 20260507201741 | 21 | 294 | 0.0 | 0.0 | 0.00 | 0.00 | 0.00 | 80 | 1005.0 |
| 20260507200741 | 21 | 294 | 0.0 | 0.0 | 0.00 | 0.00 | 0.00 | 81 | 1005.1 |
| 20260507195741 | 20 | 294 | 0.0 | 0.0 | 0.00 | 0.00 | 0.00 | 81 | 1005.0 |
| 20260507194743 | 20 | 220 | 0.0 | 0.0 | 0.00 | 0.00 | 0.00 | 81 | 1004.9 |
| 20260507193743 | 20 | 260 | 0.0 | 0.0 | 0.00 | 0.00 | 0.00 | 81 | 1005.1 |
| 20260507192743 | 20 | 260 | 0.0 | 0.0 | 0.00 | 0.00 | 0.00 | 81 | 1005.0 |
| 20260507191743 | 21 | 277 | 0.0 | 0.0 | 0.00 | 0.00 | 0.00 | 81 | 1005.0 |
| 20260507190741 | 21 | 250 | 0.0 | 1.6 | 0.00 | 0.00 | 0.00 | 81 | 1005.1 |
| 20260507185742 | 20 | 14 | 0.0 | 0.0 | 0.00 | 0.00 | 0.00 | 81 | 1005.1 |
| 20260507184742 | 20 | 267 | 0.0 | 0.0 | 0.00 | 0.00 | 0.00 | 81 | 1005.2 |
| 20260507183742 | 20 | 7 | 0.0 | 0.0 | 0.00 | 0.00 | 0.00 | 80 | 1005.2 |
| 20260507182742 | 20 | 40 | 0.0 | 0.0 | 0.00 | 0.00 | 0.00 | 81 | 1005.2 |
| 20260507181743 | 20 | 40 | 0.0 | 0.0 | 0.00 | 0.00 | 0.00 | 81 | 1005.2 |
| 20260507180743 | 20 | 46 | 1.6 | 1.6 | 0.00 | 0.00 | 0.00 | 82 | 1005.2 |
| 20260507175741 | 20 | 28 | 0.0 | 0.0 | 0.00 | 0.00 | 0.00 | 82 | 1005.3 |
| 20260507174741 | 20 | 52 | 3.2 | 4.8 | 0.00 | 0.00 | 0.00 | 82 | 1005.2 |
| 20260507173742 | 20 | 27 | 3.2 | 3.2 | 0.00 | 0.00 | 0.00 | 83 | 1005.3 |
| 20260507172741 | 20 | 19 | 1.6 | 3.2 | 0.00 | 0.00 | 0.00 | 83 | 1005.4 |
| 20260507171741 | 20 | 46 | 1.6 | 1.6 | 0.00 | 0.00 | 0.00 | 83 | 1005.5 |
| 20260507170741 | 20 | 38 | 0.0 | 0.0 | 0.00 | 0.00 | 0.00 | 83 | 1005.6 |
| 20260507165743 | 20 | 301 | 0.0 | 0.0 | 0.00 | 0.00 | 0.00 | 83 | 1005.8 |
| 20260507164743 | 20 | 239 | 1.6 | 1.6 | 0.00 | 0.00 | 0.00 | 83 | 1006.0 |
| 20260507163742 | 20 | 252 | 0.0 | 1.6 | 0.00 | 0.00 | 0.00 | 83 | 1006.1 |
| 20260507162743 | 20 | 260 | 0.0 | 1.6 | 0.00 | 0.00 | 0.00 | 83 | 1006.2 |
| 20260507161743 | 20 | 258 | 0.0 | 0.0 | 0.00 | 0.00 | 0.00 | 83 | 1006.3 |
| 20260507160742 | 20 | 263 | 1.6 | 1.6 | 0.00 | 0.00 | 0.00 | 83 | 1006.5 |
| 20260507155743 | 20 | 273 | 1.6 | 1.6 | 0.00 | 0.00 | 0.00 | 83 | 1006.5 |
| 20260507154743 | 20 | 264 | 1.6 | 3.2 | 0.00 | 0.00 | 0.00 | 82 | 1006.4 |
| 20260507153742 | 21 | 276 | 0.0 | 1.6 | 0.00 | 0.00 | 0.00 | 82 | 1006.5 |
| 20260507152742 | 21 | 274 | 0.0 | 1.6 | 0.00 | 0.00 | 0.00 | 82 | 1006.6 |
| 20260507151742 | 21 | 250 | 0.0 | 0.0 | 0.00 | 0.00 | 0.00 | 82 | 1006.7 |
| 20260507150742 | 21 | 267 | 0.0 | 1.6 | 0.00 | 0.00 | 0.00 | 82 | 1006.8 |
| 20260507145741 | 21 | 275 | 0.0 | 1.6 | 0.00 | 0.00 | 0.00 | 82 | 1007.0 |
| 20260507144741 | 21 | 257 | 0.0 | 1.6 | 0.00 | 0.00 | 0.00 | 82 | 1007.0 |
| 20260507143741 | 21 | 284 | 0.0 | 0.0 | 0.00 | 0.00 | 0.00 | 82 | 1007.2 |
| 20260507142741 | 21 | 253 | 0.0 | 1.6 | 0.00 | 0.00 | 0.00 | 82 | 1007.2 |
| 20260507141741 | 21 | 254 | 1.6 | 1.6 | 0.00 | 0.00 | 0.00 | 82 | 1007.3 |
| 20260507140741 | 21 | 236 | 0.0 | 0.0 | 0.00 | 0.00 | 0.00 | 81 | 1007.1 |
| 20260507135741 | 21 | 267 | 0.0 | 0.0 | 0.00 | 0.00 | 0.00 | 81 | 1007.3 |
| 20260507134743 | 21 | 243 | 0.0 | 0.0 | 0.00 | 0.00 | 0.00 | 81 | 1007.5 |
| 20260507133743 | 21 | 234 | 0.0 | 0.0 | 0.00 | 0.00 | 0.00 | 81 | 1007.5 |
| 20260507132743 | 21 | 261 | 1.6 | 1.6 | 0.00 | 0.00 | 0.00 | 80 | 1007.6 |
| 20260507131743 | 21 | 246 | 0.0 | 0.0 | 0.00 | 0.00 | 0.00 | 80 | 1007.7 |
| 20260507130742 | 21 | 263 | 0.0 | 0.0 | 0.00 | 0.00 | 0.00 | 80 | 1007.8 |
| 20260507125742 | 21 | 250 | 0.0 | 0.0 | 0.00 | 0.00 | 0.00 | 80 | 1007.8 |